Chicago DuPage, IL

6:40 PM CDT on July 25, 2017 (GMT -0500)
Du Page

Weather History for KDPA - August, 2014

Change the Weather History Date:

Saturday, August 30, 2014

  Actual Average Record
Temperature  
Mean Temperature 76 °F 70 °F  
Max Temperature 83 °F 81 °F 93 °F (2013)
Min Temperature 68 °F 59 °F 48 °F (2004)
Degree Days  
Heating Degree Days 0 0  
Month to date heating degree days 0 0  
Since 1 June heating degree days 27 38  
Since 1 July heating degree days 9 2  
Cooling Degree Days 11 5  
Month to date cooling degree days 247 216  
Year to date cooling degree days 677 718  
Since 1 June cooling degree days 608 672  
Growing Degree Days 26 (Base 50)    
Moisture  
Dew Point 68 °F    
Average Humidity 80    
Maximum Humidity 94    
Minimum Humidity 60    
Precipitation  
Precipitation 0.19 in 0.12 in 0.63 in (2001)
Month to date precipitation 5.86 4.48  
Year to date precipitation 22.62 25.51  
Sea Level Pressure  
Sea Level Pressure 29.85 in    
Wind  
Wind Speed 11 mph (SW)    
Max Wind Speed 25 mph    
Max Gust Speed 31 mph    
Visibility 8 miles    
Events Rain , Thunderstorm    
T = Trace of Precipitation, MM = Missing Value Source: NWS Daily Summary

Daily Weather History Graph

Daily Weather History Graph

Search for Another Location

Airport or City:

Trip Planner

Search our weather history database for the weather conditions in past years. The results will help you decide how hot, cold, wet, or windy it might be!

Date:

Astronomy

Aug. 30, 2014 Rise Set
Actual Time 6:16 AM CDT 7:29 PM CDT
Civil Twilight 5:47 AM CDT 7:58 PM CDT
Nautical Twilight 5:13 AM CDT 8:32 PM CDT
Astronomical Twilight 4:36 AM CDT 9:09 PM CDT
Moon 11:09 AM CDT (8/30) 9:58 PM CDT (8/30)
Length of Visible Light 14h 10m
Length of Day
13h 13m
Waxing Crescent, 23% of the Moon is Illuminated
Aug 30
Waxing Crescent
Sep 2
First Quarter
Sep 8
Full
Sep 15
Last Quarter
Sep 24
New

Hourly Weather History & Observations

Time (CDT) Temp. Heat Index Dew Point Humidity Pressure Visibility Wind Dir Wind Speed Gust Speed Precip Events Conditions
12:52 AM 73.9 °F - 70.0 °F 87% 29.84 in 9.0 mi South 10.4 mph - 0.00 in   Clear
1:52 AM 73.9 °F - 69.1 °F 85% 29.81 in 9.0 mi South 9.2 mph - 0.00 in   Mostly Cloudy
3:52 AM 73.9 °F - 69.1 °F 85% 29.82 in 9.0 mi SSW 12.7 mph - N/A   Partly Cloudy
4:52 AM 73.0 °F - 69.1 °F 87% 29.82 in 9.0 mi SSW 8.1 mph - N/A   Partly Cloudy
5:52 AM 72.0 °F - 69.1 °F 91% 29.83 in 8.0 mi SSW 8.1 mph - N/A   Partly Cloudy
6:05 AM 72.0 °F - 69.1 °F 91% 29.85 in 8.0 mi SSW 10.4 mph - N/A   Mostly Cloudy
6:37 AM 73.0 °F - 69.1 °F 87% 29.87 in 2.5 mi South 11.5 mph - 0.10 in Rain Heavy Rain
6:43 AM 72.0 °F - 69.1 °F 91% 29.86 in 1.2 mi South 12.7 mph - 0.19 in Rain , Thunderstorm Heavy Thunderstorms and Rain
6:49 AM 71.6 °F - 69.8 °F 94% 29.85 in 3.0 mi SSW 9.2 mph - 0.19 in Rain , Thunderstorm Light Thunderstorms and Rain
6:52 AM 71.1 °F - 69.1 °F 93% 29.83 in 8.0 mi South 6.9 mph - 0.19 in Rain Light Rain
6:57 AM 71.1 °F - 69.1 °F 93% 29.85 in 9.0 mi South 6.9 mph - 0.00 in Thunderstorm Thunderstorm
7:05 AM 71.1 °F - 69.1 °F 93% 29.85 in 9.0 mi South 8.1 mph - 0.00 in Thunderstorm Mostly Cloudy
7:15 AM 72.0 °F - 69.1 °F 91% 29.86 in 8.0 mi South 8.1 mph - 0.00 in   Scattered Clouds
7:24 AM 72.0 °F - 69.1 °F 91% 29.86 in 6.0 mi SSW 8.1 mph - 0.00 in   Mostly Cloudy
7:52 AM 72.0 °F - 69.1 °F 91% 29.84 in 5.0 mi South 9.2 mph - 0.00 in   Overcast
7:59 AM 72.0 °F - 69.1 °F 91% 29.86 in 5.0 mi SSW 9.2 mph - N/A   Overcast
8:52 AM 73.9 °F - 69.1 °F 85% 29.84 in 7.0 mi SSW 13.8 mph - N/A   Overcast
9:28 AM 75.9 °F - 69.1 °F 79% 29.85 in 10.0 mi SSW 15.0 mph 23.0 mph N/A   Mostly Cloudy
9:52 AM 75.0 °F - 68.0 °F 79% 29.84 in 10.0 mi SW 15.0 mph 21.9 mph N/A   Overcast
11:31 AM 77.0 °F - 69.1 °F 76% 29.85 in 10.0 mi SSW 18.4 mph 24.2 mph N/A   Scattered Clouds
11:52 AM 79.0 °F - 68.0 °F 69% 29.84 in 10.0 mi SW 23.0 mph 29.9 mph N/A   Mostly Cloudy
12:20 PM 79.0 °F - 68.0 °F 69% 29.86 in 10.0 mi WSW 15.0 mph 25.3 mph N/A   Overcast
12:34 PM 80.1 °F 82.3 °F 66.9 °F 64% 29.86 in 10.0 mi SW 23.0 mph 31.1 mph N/A   Mostly Cloudy
12:52 PM 81.0 °F 83.8 °F 68.0 °F 65% 29.84 in 10.0 mi SW 19.6 mph 24.2 mph N/A   Scattered Clouds
1:52 PM 82.0 °F 84.9 °F 68.0 °F 62% 29.85 in 10.0 mi WSW 16.1 mph 27.6 mph N/A   Mostly Cloudy
2:52 PM 82.0 °F 84.5 °F 66.9 °F 60% 29.84 in 10.0 mi WSW 18.4 mph 26.5 mph N/A   Scattered Clouds
3:52 PM 82.0 °F 84.5 °F 66.9 °F 60% 29.83 in 10.0 mi WSW 16.1 mph 24.2 mph N/A   Scattered Clouds
4:52 PM 82.0 °F 84.5 °F 66.9 °F 60% 29.83 in 10.0 mi West 12.7 mph - N/A   Mostly Cloudy
5:52 PM 81.0 °F 83.3 °F 66.9 °F 62% 29.84 in 10.0 mi West 11.5 mph - N/A   Clear
6:52 PM 79.0 °F - 66.0 °F 64% 29.85 in 10.0 mi West 10.4 mph - N/A   Clear
7:52 PM 75.0 °F - 66.0 °F 73% 29.87 in 10.0 mi WSW 5.8 mph - N/A   Clear
8:52 PM 73.0 °F - 66.0 °F 79% 29.89 in 10.0 mi WSW 4.6 mph - N/A   Clear
10:52 PM 70.0 °F - 66.0 °F 87% 29.90 in 10.0 mi Calm Calm - N/A   Clear
11:52 PM 69.1 °F - 64.9 °F 87% 29.91 in 10.0 mi WSW 3.5 mph - N/A   Clear